Home > Weather > Alexandria > Past weeks

Flag for USA Past Weather in Alexandria, Virginia, USA — Yesterday and Last 2 Weeks

Now
79 °F

Sunny.


Feels Like: 80 °F
Forecast: 68 / 83 °F
Wind: 7 mph from Northeast

Location: Reagan National Airport

Current Time: Jun 25, 2016 at 12:08:25 PM

Latest Report: Jun 25, 2016 at 10:52 AM


Visibility: 10 mi

Pressure: 30.19 "Hg

Humidity: 56%

Dew Point: 62 °F

Location of AlexandriaLocation

Past Weather in Alexandria — Graph

°F

Alexandria Temperature Yesterday

Maximum temperature yesterday: 84 °F (at 12:52 PM)
Minimum temperature yesterday: 72 °F (at 2:52 AM)
Average temperature yesterday: 77 °F

High & Low Weather Summary for the Past Weeks

 TemperatureHumidityPressure
High96 °F (Jun 11, 5:52 PM)94% (Jun 21, 6:52 PM)30.37 "Hg (Jun 21, 6:52 PM)
Low64 °F (Jun 13, 5:52 AM)16% (Jun 12, 6:52 PM)29.63 "Hg (Jun 16, 10:52 PM)
Average77 °F60%29.97 "Hg
* Reported Jun 10 10:52 AM — Jun 25 10:52 AM, Alexandria, Weather by CustomWeather, © 2016

Note: Actual official high and low records may vary slightly from our data, if they occured in-between our weather recording intervals... More about our weather records

Advertising

Alexandria Weather History for the Previous 24 Hours

Scroll right to see more
 ConditionsComfort  
Time TempWeatherWind HumidityBarometerVisibility
10:52 AM
Sat, Jun 25
79 °FScattered clouds.7 mph56%30.19 "Hg10 mi
9:52 AM77 °FBroken clouds.6 mph66%30.18 "Hg10 mi
8:52 AM75 °FBroken clouds.9 mph71%30.16 "Hg10 mi
7:52 AM73 °FMostly cloudy.10 mph79%30.15 "Hg10 mi
6:52 AM72 °FOvercast.9 mph78%30.13 "Hg10 mi
5:52 AM72 °FOvercast.10 mph78%30.12 "Hg10 mi
4:52 AM72 °FOvercast.10 mph78%30.10 "Hg10 mi
3:52 AM72 °FOvercast.10 mph78%30.08 "Hg10 mi
2:52 AM72 °FOvercast.7 mph78%30.08 "Hg10 mi
1:52 AM72 °FOvercast.7 mph78%30.08 "Hg10 mi
12:52 AM72 °FMostly cloudy.9 mph81%30.08 "Hg10 mi
11:52 PM
Fri, Jun 24
73 °FMostly cloudy.12 mph81%30.07 "Hg10 mi
10:52 PM74 °FOvercast.10 mph79%30.07 "Hg10 mi
9:52 PM75 °FOvercast.10 mph79%30.05 "Hg10 mi
8:52 PM76 °FOvercast.10 mph77%30.02 "Hg10 mi
7:52 PM76 °FCloudy.14 mph77%30.01 "Hg10 mi
7:01 PM79 °FMostly cloudy.15 mph72%30.00 "Hg10 mi
5:52 PM81 °FBroken clouds.13 mph67%29.98 "Hg10 mi
4:52 PM84 °FPartly sunny.12 mph65%29.97 "Hg10 mi
3:52 PM84 °FPartly sunny.13 mph63%29.96 "Hg10 mi
2:52 PM84 °FPartly sunny.5 mph61%29.96 "Hg10 mi
1:52 PM83 °FPartly sunny.5 mph63%29.97 "Hg10 mi
12:52 PM84 °FPartly sunny.6 mph63%29.98 "Hg10 mi
Weather by CustomWeather, © 2016

See weather overviewHow to use our weather pages